Location: *
(46.4000°N, 12.6667°E)
Time: 14:55:51
(UTC+00:00)

Envisat - Pass Details

Date: 09 March 2021
Orbit: 764 x 766 km, 98.1° (Epoch: 17 April)

Event Time Altitude Azimuth Distance (km) Brightness Sun altitude
Rises 17:33:21 0° 222° (SW) 3,223 6.9 -5.4°
Reaches altitude 10° 17:37:32 10° 256° (WSW) 2,305 7.1 -6.1°
Maximum altitude 17:39:04 11° 274° (W) 2,219 7.2 -6.4°
Drops below altitude 10° 17:40:37 10° 292° (WNW) 2,310 6.8 -6.6°
Sets 17:44:51 0° 326° (NNW) 3,244 6.8 -7.4°
